Current weather by "City, St" or "zip code"  
 

Current Conditions: Jasper Walker County Airport amp; Bevill Field, AL

Overcast


63.0 F

Last Updated on Oct 26 2020, 6:55 am CDT
Humidity: 100%
Wind Speed: N 0.0 mph
Barometer 30.09 in
Dewpoint: 62.6 F
Visibility: 10.00 mi
Precip: --
Heat Index: NA
Wind Chill: NA
Current conditions at:

Jasper Walker County Airport amp; Bevill Field, AL (KJFX)

Lat: 33.902 Lon: 87.31417

Local Radar Image active severe weather and emergency alerts image image weather storm and storm spotter reports image weather observation monitoring service image
Local
Radar
Active
Alerts
Storm Reports Obs
Monitoring

Sign-up For Email & Text Message Weather Alert Notification Services



Advertise Here

Observation History for Jasper Walker County Airport amp; Bevill Field, AL


Time Wind
(mph)
Vis
(mi)
Weather Precip (in) Temperature (F) Relative
Humidity
Wind
Chill
(F)
Heat
Index
(F)
Pressure
Air Dwpt altimeter
(in)
sea level
(mb)
Rmks
6:55 am CDT N 0.0 10.00 Overcast -- 63.0 62.6 100% NA NA 30.09 M
5:55 am CDT N 0.0 9.00 Overcast -- 63.0 62.6 100% NA NA 30.08 M
4:55 am CDT N 0.0 5.00 Fog/Mist -- 63.0 62.6 100% NA NA 30.04 M
3:55 am CDT N 0.0 8.00 Overcast -- 63.0 62.6 100% NA NA 30.04 M
2:55 am CDT N 0.0 8.00 Overcast -- 63.0 62.6 100% NA NA 30.04 M
1:35 am CDT N 0.0 10.00 Overcast -- 63.0 62.6 100% NA NA 30.04 M
12:35 am CDT N 0.0 10.00 Overcast -- 64.0 64.4 100% NA NA 30.04 M
11:55 pm CDT N 0.0 10.00 Overcast -- 64.0 64.4 100% NA NA 30.03 M
10:55 pm CDT N 0.0 10.00 Overcast -- 64.0 64.4 100% NA NA 30.03 M
9:55 pm CDT N 0.0 10.00 Overcast -- 64.0 64.4 100% NA NA 30.02 M
8:55 pm CDT N 0.0 10.00 Overcast -- 66.0 66.2 100% NA NA 30.00 M
7:55 pm CDT W 4.6 10.00 Overcast -- 66.0 66.2 100% NA NA 30.00 M
6:55 pm CDT N 0.0 10.00 Overcast -- 66.0 66.2 100% NA NA 29.98 M
5:55 pm CDT N 0.0 10.00 Overcast -- 68.0 66.2 94% NA NA 29.97 M
4:55 pm CDT N 0.0 10.00 Overcast -- 70.0 64.4 83% NA NA 29.96 M
3:55 pm CDT N 0.0 10.00 Overcast -- 73.0 64.4 74% NA NA 29.95 M
2:55 pm CDT N 0.0 10.00 Overcast -- 72.0 64.4 78% NA NA 29.96 M
1:55 pm CDT NW 4.6 10.00 Overcast -- 72.0 64.4 78% NA NA 29.97 M
12:55 pm CDT N 0.0 10.00 Overcast -- 70.0 62.6 78% NA NA 29.99 M
11:55 am CDT N 0.0 9.00 Overcast -- 68.0 62.6 83% NA NA 30.01 M
10:55 am CDT N 0.0 8.00 Overcast -- 64.0 62.6 94% NA NA 30.02 M
9:55 am CDT N 0.0 7.00 Overcast -- 63.0 60.8 94% NA NA 30.02 M
8:55 am CDT N 0.0 8.00 Overcast -- 61.0 60.8 100% NA NA 30.01 M
7:55 am CDT N 0.0 9.00 Overcast -- 59.0 59.0 100% NA NA 29.99 M

Regional Weather Observation


Jasper Walker County Airport amp; Bevill Field, AL (KJFX)

Overcast
63.0 F

Muscle Shoals, North West Alabama Regional Airport, AL (KMSL)

Overcast
60.0 F

Folsom Field Airport, AL (K3A1)

Partly Cloudy
82.0 F

Tuscaloosa Regional Airport, AL (KTCL)

Overcast
62.0 F

Decatur, Pryor Field, AL (KDCU)

Overcast
61.0 F

Huntsville, Huntsville International / Jones Field, AL (KHSV)

Overcast
61.0 F